Current Version              Previous Version:    01  02  03  04  05  06  07  08  09  10  11  12  13  14  15  16  17  18  19  20  21  22  23  24  25  26  27  28  29  30  
   31  32  33  34  35  36  37  38  39  40  41  42  43  44  45  46  47  48  49  50  51  52  53  54  55  56  57  58  59  60  

[Printable]
369
ASUS44 KFWD 240615
RWRTX
NORTH TEXAS HOURLY WEATHER ROUNDUP
NATIONAL WEATHER SERVICE FORT WORTH TX
100 AM CDT THU JUL 24 2014

NOTE: "FAIR" INDICATES FEW OR NO CLOUDS BELOW 12,000 FEET WITH NO
SIGNIFICANT WEATHER AND/OR OBSTRUCTIONS TO VISIBILITY.

TXZ118-119-240700-
DALLAS/FORT WORTH METROPLEX

CITY           SKY/WX    TMP DP  RH WIND       PRES   REMARKS
DFW AIRPORT    CLOUDY    78  66  66 SW5       30.01F
6HR MIN TEMP:  76; 6HR MAX TEMP:  94; 6HR PCP: TRACE;

DALLAS LOVE    CLOUDY    76  68  76 W6        30.01F
6HR MIN TEMP:  74; 6HR MAX TEMP:  93; 6HR PCP:  0.09;

FTW MEACHAM    CLOUDY    78  66  66 CALM      30.02F
6HR MIN TEMP:  78; 6HR MAX TEMP:  94;

DAL-EXECUTIVE  CLOUDY    74  68  81 W6        30.00F
6HR MIN TEMP:  73; 6HR MAX TEMP:  94; 6HR PCP:  0.01;

FTW-ALLIANCE   CLOUDY    76  66  71 W3        30.03F
6HR MIN TEMP:  75; 6HR MAX TEMP:  91;

FTW-NAS-JRB    MOCLDY    80  63  55 CALM      30.07F
6HR MIN TEMP:  79; 6HR MAX TEMP:  95;

ARLINGTON      CLOUDY    75  67  76 CALM      30.02F
6HR MIN TEMP:  74; 6HR MAX TEMP:  94; 6HR PCP: TRACE;

$$

TXZ091>094-102>105-117-120-121-131>134-240700-
NORTH CENTRAL TEXAS

CITY           SKY/WX    TMP DP  RH WIND       PRES   REMARKS
DENTON         CLOUDY    75  68  78 NW6       30.03F
6HR MIN TEMP:  74; 6HR MAX TEMP:  92;

MCKINNEY       MOCLDY    73  70  90 NW7       30.00F
6HR MIN TEMP:  73; 6HR MAX TEMP:  90; 6HR PCP:  0.08;

TERRELL        CLOUDY    74  69  85 W8        29.99F
6HR MIN TEMP:  73; 6HR MAX TEMP:  91; 6HR PCP: TRACE;

$$

TXZ083>090-098>101-113>116-127>130-139>142-154-155-240700-
WESTERN NORTH TEXAS

CITY           SKY/WX    TMP DP  RH WIND       PRES   REMARKS
WICHITA FALLS  CLOUDY    79  75  87 E9        30.07R
6HR MIN TEMP:  77; 6HR MAX TEMP:  94; 6HR PCP:  0.09;

VERNON         MOCLDY    82  70  65 S3        30.08F
ABILENE        PTCLDY    81  65  58 SE6       30.12R
6HR MIN TEMP:  81; 6HR MAX TEMP:  96;

ABILENE-DYESS  PTCLDY    79  65  62 SE6       30.11S
6HR MIN TEMP:  79; 6HR MAX TEMP:  96;

BRECKENRIDGE   CLOUDY    85  65  52 SE7       30.07F
6HR MIN TEMP:  85; 6HR MAX TEMP:  97;

MINERAL WELLS  MOCLDY    77  64  64 SE9       30.04F
6HR MIN TEMP:  76; 6HR MAX TEMP:  91;

BROWNWOOD      MOCLDY    77  66  69 E6        30.09R
$$

TXZ143>147-156>162-174-175-240700-
CENTRAL TEXAS

CITY           SKY/WX    TMP DP  RH WIND       PRES   REMARKS
WACO           PTCLDY    76  65  68 CALM      30.01F
6HR MIN TEMP:  75; 6HR MAX TEMP:  92;

WACO-MCGREGOR  PTCLDY    75  63  64 SW6       30.02F
6HR MIN TEMP:  75; 6HR MAX TEMP:  93;

CORSICANA      CLOUDY    73  67  81 W6        30.00F
6HR MIN TEMP:  73; 6HR MAX TEMP:  90; 6HR PCP: TRACE;

MEXIA          CLOUDY    72  67  84 SW3       29.99R
6HR MIN TEMP:  72; 6HR MAX TEMP:  89;

TEMPLE         PTCLDY    75  63  64 CALM      30.05S
6HR MIN TEMP:  75; 6HR MAX TEMP:  91;

KILLEEN        MOCLDY    81  70  69 E5        30.06F
KILLEEN-SKYLRK PTCLDY    79  64  61 E5        30.06S
6HR MIN TEMP:  79; 6HR MAX TEMP:  91;

FORT HOOD      PTCLDY    80  66  62 E3        30.05F
6HR MIN TEMP:  80; 6HR MAX TEMP:  94;

LAMPASAS       CLEAR     78  69  73 CALM      30.07S
6HR MIN TEMP:  78; 6HR MAX TEMP:  91;

$$

TXZ095>097-106>112-122>126-135>138-148>153-164>167-240700-
EAST TEXAS

CITY           SKY/WX    TMP DP  RH WIND       PRES   REMARKS
PARIS          CLOUDY    70  64  83 NE3       30.01S
6HR MIN TEMP:  70; 6HR MAX TEMP:  72;

TYLER          PTCLDY    71  68  90 SW3       30.00F
6HR MIN TEMP:  71; 6HR MAX TEMP:  87; 6HR PCP:  0.17;

LONGVIEW       PTCLDY    70  68  93 CALM      29.99S
6HR MIN TEMP:  70; 6HR MAX TEMP:  84; 6HR PCP:  0.29;

NACOGDOCHES    MOCLDY    72  68  88 CALM      29.98S
LUFKIN         MOCLDY    74  67  78 NW5       29.97R
6HR MIN TEMP:  74; 6HR MAX TEMP:  91;

$$

SUPPLEMENTAL OBSERVATIONS (CENTRAL)

CITY           SKY/WX    TMP DP  RH WIND       PRES   REMARKS
LAKE TEXOMA      N/A     72  70  94 N3          N/A
CADDO GRASSLND   N/A     70  68  94 NW3         N/A
PAT MAYSE LAKE   N/A     68  66  94 N5          N/A
GREENVILLE       N/A     72  68  88 NE2G12      N/A
CEDAR HILL       N/A     73  66  78 SW1         N/A
PALESTINE        N/A     70  66  88 CALM        N/A
LAKE LIMESTONE   N/A     73  70  88 SW2         N/A
MCGREGOR         N/A     73  66  78 SW2         N/A
TEMPLE           N/A     77  66  69 CALM        N/A
$$

SUPPLEMENTAL OBSERVATIONS (WEST)

CITY           SKY/WX    TMP DP  RH WIND       PRES   REMARKS
MILLERS CREEK    N/A     82  64  54 S6          N/A
POSSUM KINGDOM   N/A     81  63  54 SE9         N/A
LBJ GRASSLAND    N/A     75  66  73 E1G9        N/A
GRANBURY         N/A     77  63  61 S2G14       N/A
COMANCHE         N/A     75  64  69 SE7         N/A
HAMBY            N/A     79  63  57 SE5         N/A
IVIE RESERVOIR   N/A     79  64  61 E6          N/A
COLORADO BEND    N/A     79  66  65 E7          N/A
$$

SUPPLEMENTAL OBSERVATIONS (EAST)

CITY           SKY/WX    TMP DP  RH WIND       PRES   REMARKS
CLARKSVILLE      N/A     70  68  94 N2          N/A
TEXARKANA        N/A     70  66  88 N3          N/A
LINDEN           N/A     70  66  88 CALM        N/A
CADDO LAKE       N/A     68  66  94 CALM        N/A
GILMER           N/A     70  66  88 NW2         N/A
HENDERSON        N/A     70  66  88 SE1         N/A
LUFKIN           N/A     73  70  88 MISG        N/A
S SABINE NF      N/A     72  66  83 W1          N/A
$$

SUPPLEMENTAL OBSERVATIONS ARE A COLLECTION OF AUTOMATED INSTRUMENTS
THAT ARE MAINTAINED BY A VARIETY OF FEDERAL AND STATE AGENCIES.
CERTAIN ELEMENTS...SUCH AS HUMIDITY VALUES AND SUSTAINED WIND
SPEEDS...MAY BE APPROXIMATED.